GFSFLT1_500_rhum_258.txt.gz
RH
92 90 62 59 61 58 62 63 64 66 71 76 77 76 75 73 50 43 45 31 28 28 28 26 43 60 68 72 73 84 96 93
94 89 74 77 66 68 82 71 66 66 67 66 66 60 57 59 47 38 46 43 41 43 34 24 22 17 34 53 62 64 76 82
96 95 91 89 91 94 73 59 51 50 52 57 55 50 45 42 40 34 34 41 45 39 27 14 12 14 24 37 44 57 58 53
96 96 96 95 82 79 62 53 46 45 45 47 49 55 53 52 52 52 52 50 41 23 9 11 17 19 24 36 44 46 46 43
97 96 90 95 86 82 70 58 49 47 52 58 58 56 51 37 20 21 17 10 9 12 15 18 24 27 42 52 54 56 58 64
97 97 98 90 83 84 64 27 35 19 12 17 22 14 10 11 12 14 22 34 39 44 45 49 50 51 52 53 57 64 67 70
97 97 86 83 76 27 14 8 8 8 8 8 12 21 31 35 36 39 43 49 55 53 52 53 54 53 53 51 49 48 49 51
73 76 68 61 30 11 8 8 10 16 28 40 44 50 50 47 47 49 52 52 41 27 16 10 7 6 5 5 5 5 6 7
52 38 21 11 9 9 9 9 14 23 31 34 40 47 53 52 48 35 15 8 6 5 4 4 4 4 4 4 4 4 4 4
12 10 10 10 10 9 8 9 19 33 34 30 38 42 49 22 9 8 5 4 4 4 5 5 5 5 5 5 5 5 5 5
12 11 11 10 9 9 13 22 26 32 28 19 39 47 14 8 5 5 5 5 5 5 5 4 4 5 5 5 5 5 5 5
14 13 12 10 10 13 17 30 32 27 22 35 52 16 7 5 5 5 5 5 5 4 4 4 5 5 5 4 4 4 4 4
17 13 13 11 14 19 26 32 40 53 61 57 19 8 6 6 6 6 6 6 6 6 6 6 6 6 6 5 4 3 3 3
15 16 12 11 12 22 20 16 32 46 69 21 8 7 7 7 7 8 8 7 7 7 7 7 7 6 4 4 3 3 4 6
18 17 13 13 14 14 12 13 15 53 45 9 8 8 8 8 10 10 10 9 8 8 8 7 6 5 3 3 5 11 16 20
23 18 14 14 12 10 9 12 29 67 16 8 8 8 10 11 12 12 11 10 9 9 8 6 5 4 4 10 16 20 21 20
26 18 16 16 12 9 9 11 62 38 8 8 9 9 11 12 13 13 12 11 10 9 7 5 4 5 15 22 25 24 18 12
29 20 18 16 13 10 10 20 69 18 9 9 9 10 11 13 14 14 12 11 10 8 6 4 4 13 23 25 18 10 9 10
33 21 19 15 12 10 10 54 56 12 11 10 10 11 12 15 16 14 12 11 9 7 5 4 8 22 25 16 10 13 17 17

GFSFLT1_500_rhum_264.txt.gz
RH
86 96 96 95 94 98 97 94 77 76 80 82 62 53 48 43 48 45 37 43 55 58 48 30 14 10 8 7 6 6 6 6
80 86 88 96 94 97 97 93 72 60 61 61 52 55 40 21 11 10 9 8 9 9 10 14 21 21 20 22 22 21 20 23
84 89 87 92 91 96 96 72 59 56 55 58 61 39 12 8 8 8 8 9 12 17 28 31 34 35 36 37 40 42 39 31
94 97 96 96 98 90 80 67 55 65 72 58 36 17 10 9 9 10 15 20 25 30 31 31 38 42 41 36 25 10 5 4
96 89 91 92 88 60 69 76 73 64 46 18 11 10 9 10 13 17 22 27 30 30 36 32 16 8 5 5 4 4 3 3
61 77 90 70 60 43 36 36 21 12 11 10 10 9 11 14 19 23 21 20 33 43 19 7 5 4 4 3 3 3 4 4
54 34 35 24 18 13 13 13 12 11 10 10 10 10 9 9 9 10 18 29 39 10 6 5 5 4 5 5 5 5 5 5
50 28 21 14 15 15 15 13 13 12 11 10 9 9 9 23 39 44 46 39 11 6 5 5 5 6 6 6 6 6 6 6
30 25 15 17 17 19 18 17 19 18 13 11 11 10 10 25 36 43 39 11 6 6 5 7 8 8 7 6 6 6 6 6
25 18 20 22 24 24 23 23 22 18 15 13 12 10 10 24 24 36 33 6 6 7 8 8 8 7 7 7 7 7 7 7
24 19 23 24 26 26 26 28 25 20 18 16 14 12 10 13 20 28 31 6 6 8 8 8 8 7 7 8 8 8 8 8
18 18 20 21 25 26 29 31 30 24 20 19 16 14 10 9 11 18 27 7 7 8 8 8 8 8 8 9 10 10 9 8
19 16 17 18 22 25 30 35 34 27 23 21 17 14 12 10 9 32 36 9 8 8 8 8 8 9 10 12 12 11 10 8
17 16 16 18 21 24 33 38 38 33 26 21 18 16 15 12 13 42 30 10 10 9 9 9 11 12 13 14 13 11 10 9
30 18 17 18 21 24 38 41 42 37 26 22 20 19 15 12 36 40 18 12 12 12 11 12 14 15 16 15 14 12 11 10
26 55 21 18 21 27 40 45 47 41 28 24 22 18 13 32 52 27 14 14 15 14 15 17 18 18 18 16 14 12 11 10
38 48 20 21 24 31 43 50 52 42 31 26 22 16 18 51 32 17 16 19 19 18 19 20 21 21 20 17 15 13 12 10
22 23 24 25 27 38 49 54 54 44 35 28 21 14 33 50 25 18 19 22 22 22 22 23 24 23 21 18 16 14 12 10
25 26 27 27 34 48 55 56 55 51 36 28 20 16 39 52 26 18 20 25 25 24 26 26 26 25 22 19 17 15 12 10

GFSFLT1_500_rhum_267.txt.gz
RH
90 97 91 81 92 90 94 95 94 94 84 81 70 66 64 58 47 21 10 9 8 9 10 12 15 20 26 26 26 23 24 32
92 91 79 95 95 88 97 94 94 89 82 75 70 64 57 52 30 11 9 8 8 9 11 14 18 28 30 34 40 39 37 39
97 90 96 87 82 83 98 74 72 72 66 60 52 35 15 11 10 9 8 8 8 12 20 26 33 31 33 29 26 18 12 7
85 95 82 75 71 78 51 51 75 64 37 22 13 11 10 10 8 8 8 8 9 16 23 26 42 30 12 5 5 4 4 3
65 58 64 52 67 56 42 23 22 18 13 12 12 12 11 9 9 8 8 11 15 13 20 42 20 7 5 4 4 4 4 4
46 50 54 37 27 16 14 15 17 16 16 16 14 11 10 10 9 9 15 25 29 33 38 29 8 5 4 5 6 6 6 5
26 26 54 21 18 16 19 21 21 19 20 17 15 14 13 12 10 9 12 23 30 35 35 11 5 5 6 9 9 8 8 7
23 22 20 19 18 22 24 25 24 23 22 23 20 20 19 14 13 10 11 18 25 31 32 7 6 7 9 9 8 7 6 6
22 22 19 19 21 24 25 26 26 26 29 28 26 24 21 18 15 12 10 9 12 22 29 8 7 7 8 8 7 7 7 7
19 18 23 21 20 23 25 27 26 28 32 31 31 28 25 21 16 14 13 12 12 29 35 15 7 7 8 8 7 7 8 9
20 18 20 20 18 20 21 22 24 26 32 35 35 33 28 23 18 17 15 12 10 23 40 20 9 8 7 7 8 9 10 11
36 23 19 19 19 17 18 19 22 24 33 39 39 38 33 27 22 18 15 11 13 27 35 16 11 10 10 10 11 12 14 15
58 45 34 20 18 17 17 18 20 23 34 42 42 42 36 31 25 18 14 16 33 41 23 13 14 14 13 14 15 17 18 18
65 65 61 56 41 19 18 19 21 25 37 42 44 44 39 33 25 18 14 27 38 27 16 15 17 17 17 18 21 21 21 21
63 61 57 45 22 21 20 21 23 28 42 46 48 49 44 33 24 17 16 30 38 27 17 18 20 20 21 24 24 24 24 24
62 55 32 19 20 21 22 24 27 37 50 51 52 53 44 32 22 17 16 29 42 28 18 19 23 23 26 28 28 27 28 28
44 29 22 22 23 24 27 27 34 48 55 52 54 53 41 30 21 18 17 33 47 30 19 20 26 27 30 32 32 34 33 32
39 37 29 26 28 29 28 29 42 55 58 57 54 47 39 26 21 20 20 42 49 30 20 22 29 30 35 37 39 40 37 35
34 32 31 30 30 30 30 34 46 57 62 59 49 46 33 26 23 22 24 43 56 35 23 23 32 34 38 43 47 44 40 38

GFSFLT1_500_rhum_270.txt.gz
RH
93 96 84 90 85 72 69 96 97 89 96 92 76 78 74 72 58 24 14 10 9 7 6 6 6 7 11 15 14 25 28 35
81 77 80 89 85 77 71 68 64 67 66 63 62 78 45 22 12 11 11 9 8 6 6 6 6 12 19 31 31 32 22 16
69 76 85 87 68 85 66 49 47 65 71 58 50 18 12 14 15 13 10 8 8 7 8 10 13 18 33 36 20 8 5 4
78 46 56 60 56 48 48 43 23 19 20 19 15 16 18 17 14 12 11 9 8 8 10 15 26 34 36 14 6 5 4 4
61 35 30 56 49 25 18 15 17 18 18 19 21 21 19 17 17 18 16 13 10 9 11 19 26 35 26 8 5 4 5 6
29 31 24 20 46 18 16 19 21 23 23 24 26 26 23 21 21 22 20 15 12 10 9 11 17 26 28 8 5 6 8 8
32 33 26 21 20 19 19 23 24 25 25 26 29 31 30 28 28 26 26 17 14 13 12 11 10 14 24 14 6 7 9 9
43 32 22 22 20 19 21 23 24 26 26 27 30 34 34 33 33 30 30 22 17 16 14 11 11 21 31 18 8 8 8 8
57 45 20 16 19 21 20 21 22 23 25 26 27 33 36 38 37 34 32 27 21 17 13 10 14 28 36 23 11 9 8 7
51 46 27 19 16 19 19 18 18 19 19 22 22 32 38 42 41 39 35 31 22 16 14 20 35 39 25 14 12 10 10 10
60 57 51 39 25 19 18 17 17 17 18 19 22 30 40 44 43 41 40 33 23 16 14 21 32 30 18 13 13 14 14 15
66 67 62 59 53 56 44 31 24 18 18 20 23 30 44 45 43 44 41 33 23 17 15 18 27 31 22 15 15 17 18 22
61 61 62 59 60 64 60 54 30 20 21 23 26 37 47 45 45 47 41 33 24 18 16 17 25 36 26 17 18 21 23 27
56 58 60 60 64 57 33 20 22 22 25 26 31 44 49 49 49 48 41 34 24 20 18 18 29 39 31 18 19 23 25 30
53 55 58 58 49 26 21 22 23 27 27 28 36 46 52 54 50 45 41 30 25 24 20 20 28 40 33 20 18 24 28 32
46 47 45 42 36 34 28 27 28 28 28 29 38 47 56 56 50 45 38 32 30 30 24 21 25 44 43 24 19 26 31 36
40 40 40 39 34 31 30 29 29 30 31 34 39 49 57 58 52 45 40 36 36 33 27 22 22 44 50 28 21 30 36 40
38 38 38 38 33 30 29 31 32 35 37 41 45 53 58 61 58 47 44 41 41 35 29 24 23 44 56 32 24 35 41 51
42 42 39 34 32 32 33 36 40 42 49 51 58 58 62 65 60 56 48 45 43 37 29 27 26 50 60 32 28 42 48 64

GFSFLT1_500_rhum_276.txt.gz
RH
57 49 48 56 70 70 55 54 60 51 45 44 42 32 18 16 15 14 14 15 16 16 16 15 14 13 12 10 8 6 6 8
50 38 50 54 43 27 39 34 51 44 20 16 15 15 16 16 16 16 16 18 20 20 20 18 17 17 15 12 10 10 8 8
36 40 49 46 28 25 29 34 15 14 15 17 18 18 17 16 17 18 18 20 22 25 24 22 21 20 19 17 15 13 11 9
34 36 29 29 30 27 15 22 15 15 18 18 16 14 15 16 18 18 19 21 25 28 27 24 25 21 19 19 17 14 10 8
31 34 37 42 43 32 24 16 15 16 19 17 15 16 17 17 17 18 18 20 25 30 29 27 26 22 20 21 18 14 10 10
34 36 40 42 45 47 40 18 18 17 18 20 20 19 17 16 16 16 18 21 23 32 32 31 28 23 23 24 20 16 15 14
37 33 38 42 46 43 42 23 16 18 19 19 18 16 18 17 15 16 19 22 29 36 38 35 31 27 26 26 23 22 18 16
35 40 45 40 42 44 44 41 29 17 17 16 21 35 37 32 18 18 22 24 32 40 41 39 34 31 29 28 26 24 21 18
41 47 40 40 40 44 51 54 53 48 47 50 51 51 49 26 18 23 23 28 35 37 38 40 40 37 33 31 27 28 27 23
48 46 38 34 40 49 50 51 53 51 47 44 38 21 18 20 24 24 28 33 37 40 42 45 45 42 37 33 32 33 32 27
44 44 36 31 37 43 44 43 46 44 40 28 20 25 26 24 25 30 34 38 42 45 47 50 52 48 42 39 37 40 36 30
38 32 29 30 32 37 38 34 39 36 32 31 34 30 25 27 31 36 39 44 48 52 52 55 59 54 49 45 44 48 42 31
29 27 28 28 24 30 34 33 33 37 36 35 31 26 26 31 34 39 42 48 54 57 58 59 64 61 57 52 52 57 45 35
24 28 26 24 28 26 28 29 30 34 34 33 29 28 30 32 35 34 41 48 52 58 62 62 70 72 67 64 62 65 50 39
29 22 26 30 28 27 28 33 35 38 35 33 35 35 32 33 31 32 41 41 49 62 64 66 78 84 85 77 69 64 52 45
24 22 24 28 26 25 29 37 38 39 38 37 34 28 23 23 26 31 35 38 45 58 57 68 86 98 90 73 63 55 50 41
19 27 23 26 27 25 25 30 39 39 32 20 16 17 18 20 24 28 33 39 45 47 53 67 90 100 89 69 62 56 44 38
25 26 24 23 24 18 16 17 16 15 15 15 16 17 18 21 24 27 33 40 44 46 50 65 96 100 76 66 58 46 42 42
23 21 15 15 14 13 12 13 14 14 15 16 17 19 21 24 27 28 35 45 43 51 56 86 97 88 67 58 42 43 44 42

GFSFLT1_500_rhum_279.txt.gz
RH
44 45 35 35 41 27 25 25 28 27 26 18 16 14 14 14 14 15 16 17 19 19 19 20 22 21 20 19 15 17 18 17
37 34 33 27 25 25 26 18 27 16 14 15 15 14 15 15 15 17 18 18 18 19 20 20 24 24 23 20 16 16 18 18
33 33 31 29 33 33 26 23 15 17 14 16 16 16 14 14 17 17 17 17 17 17 21 22 26 26 25 22 18 18 19 19
31 32 32 35 38 43 40 34 21 14 15 17 18 16 16 17 17 18 16 15 16 19 21 25 26 27 29 26 23 22 22 21
32 34 34 35 36 36 37 38 31 17 16 17 18 18 19 20 18 30 26 18 17 22 23 27 26 27 29 29 27 26 26 24
33 35 36 33 38 33 31 37 40 30 21 16 18 19 17 23 45 43 26 18 23 23 29 32 33 34 34 35 33 30 30 27
31 33 34 38 39 30 29 39 40 40 41 32 31 30 37 42 41 31 19 23 24 30 34 36 36 36 36 41 41 37 34 32
31 32 37 45 39 28 32 41 41 38 41 44 42 36 35 26 24 25 22 25 30 33 37 39 40 40 37 44 47 44 39 36
28 33 38 44 32 28 33 40 39 35 35 35 37 34 24 29 29 22 23 26 27 32 35 38 39 45 44 45 51 53 47 44
31 34 35 35 28 29 28 29 38 33 29 33 30 30 33 31 25 24 26 25 26 31 36 39 43 46 48 45 53 61 57 52
27 27 31 27 26 23 19 21 29 34 32 33 29 27 28 27 25 26 25 23 24 34 40 41 39 43 50 49 54 66 67 62
20 24 20 23 24 24 23 22 26 31 30 30 26 25 25 24 25 22 23 21 22 31 36 39 37 44 44 47 55 77 82 83
20 16 18 19 18 24 26 21 22 26 29 30 24 25 25 25 21 18 19 20 23 31 34 37 38 41 44 44 57 87 90 86
19 16 15 12 12 18 24 21 22 23 24 25 27 27 22 17 15 16 17 19 24 30 34 37 40 43 41 45 66 86 91 81
14 20 14 14 15 16 24 24 21 16 14 18 17 14 12 13 15 16 18 20 23 28 32 38 43 44 47 49 70 87 93 76
15 15 18 18 25 19 20 19 15 13 12 12 13 12 13 13 15 15 18 21 25 29 32 41 47 49 52 55 73 94 87 62
23 18 19 26 28 18 14 14 13 12 11 12 13 14 11 12 14 15 20 25 28 30 34 49 50 53 53 67 82 96 64 42
24 21 22 20 22 17 14 12 12 12 12 13 13 11 10 11 13 15 23 29 32 36 47 54 56 61 66 87 90 75 42 33
27 22 16 17 19 16 11 12 13 13 12 10 9 10 11 11 14 20 29 33 37 43 56 60 61 72 88 99 83 48 34 39